Regional Weather Roundup
Issued by NWS Columbia, SC

Home | Current Version | Previous Version | Text Only | Print | Product List | Glossary On
Versions: 1 2 3 4 5 6 7 8 9 10 11 12 13 14 15 16 17 18 19 20 21 22 23 24 25 26 27 28 29 30 31 32 33 34 35 36 37 38 39 40 41 42 43 44 45 46 47 48 49 50
000
ASUS42 KCAE 050810
RWRCAE
REGIONAL WEATHER ROUNDUP
NATIONAL WEATHER SERVICE COLUMBIA SC
400 AM EDT SUN JUL 05 2015

NOTE: "FAIR" INDICATES FEW OR NO CLOUDS BELOW 12,000 FEET WITH NO
SIGNIFICANT WEATHER AND/OR OBSTRUCTIONS TO VISIBILITY.

NOT ALL STATIONS ARE QUALITY CONTROLLED BY THE NATIONAL
WEATHER SERVICE. USE DATA WITH CAUTION...ESPECIALLY
DEWPOINT OBSERVATIONS.

SCZ001>056-GAZ040-063>065-077-050900-
...UPSTATE SOUTH CAROLINA...

CITY           SKY/WX    TMP DP  RH WIND       PRES   REMARKS
ANDERSON       CLOUDY    73  70  90 S5        30.08S
SPARTANBURG      N/A     73  72  94 SW3       30.07S
CLEMSON        CLOUDY    73  70  90 CALM      30.08F
GREENVILLE     CLOUDY    73  69  87 S5        30.08F
GREENWOOD      PTCLDY    72  69  90 SW7       30.10R
GREER          CLOUDY    73  70  88 SW6       30.07S
ROCK HILL      MOCLDY    71  69  93 SW6       30.08S
CHESTER        PTSUNNY   73  70  88 CALM      30.09S
LAURENS        MOSUNNY   70  70 100 SW3       30.07F


...CENTRAL SOUTH CAROLINA...

CITY           SKY/WX    TMP DP  RH WIND       PRES   REMARKS
COLUMBIA APT   CLOUDY    74  68  81 SW3       30.07S
COLUMBIA OWENS CLOUDY    74  68  81 S3        30.09S
DARLINGTON     MOCLDY    72  64  78 SW7       30.09R
FLORENCE       MOCLDY    74  68  81 SW7       30.08R
MCENTIRE ANGB  CLOUDY    71  68  89 VRB2      30.08F
ORANGEBURG     MOCLDY    71  68  90 CALM      30.08F
NEWBERRY       MOSUNNY   68  66  94 S3        30.10F
BARNWELL       FAIR      72  72 100 CALM      30.09S
MANNING        FAIR      72  68  88 SW5       30.09S
CAMDEN         FAIR      72  66  83 S5        30.08S
LANCASTER      CLOUDY    72  72 100 SW3       30.08S
WINNSBORO      CLOUDY    72  68  88 S3        30.08S


...EASTERN AND COASTAL SOUTH CAROLINA...

CITY           SKY/WX    TMP DP  RH WIND       PRES   REMARKS
MYRTLE BEACH   MOCLDY    75  64  69 W3        30.11S
N MYRTLE BCH   PTCLDY    76  66  71 SW7       30.09R
CONWAY         FAIR      72  68  88 SW3       30.09S FOG
MARION         FAIR      72  68  88 S3        30.09R
HARTSVILLE     FAIR      72  64  78 CALM      30.07S
FLORENCE       MOCLDY    74  68  81 SW7       30.08R
DARLINGTON     MOCLDY    72  64  78 SW7       30.09R
CHARLESTON APT PTCLDY    73  71  93 SW5       30.09S
MOUNT PLEASANT FAIR      73  72  94 CALM      30.09S FOG
WALTERBORO     MOSUNNY   70  70 100 S5        30.10F
BEAUFORT       PTCLDY    74  71  91 SW6       30.10S


...EASTERN GEORGIA...

CITY           SKY/WX    TMP DP  RH WIND       PRES   REMARKS
AUGUSTA BUSH F CLOUDY    72  70  93 CALM      30.08R
AUGUSTA DANIEL CLOUDY    73  69  87 S5        30.09R
THOMSON        CLOUDY    74  74  98 CALM      30.13S
WASHINGTON     FAIR      77  77 100 SW3       30.09S
CLAXTON        FAIR      70  70 100 CALM      30.11R
SYLVANIA       SUNNY     72  72 100 CALM      30.10R
SAVANNAH       PTCLDY    73  69  87 S5        30.10F


...SOUTHERN NORTH CAROLINA...

CITY           SKY/WX    TMP DP  RH WIND       PRES   REMARKS
CHARLOTTE      MOCLDY    73  69  87 SW6       30.08R
MONROE         MOCLDY    72  68  87 SW6       30.07S
WADESBORO      PTSUNNY   73  67  83 CALM      30.07R
ROCKINGHAM     PTSUNNY   74  70  88 CALM      30.07S
ASHEVILLE      LGT RAIN  67  64  90 CALM      30.13F

$$


USA.gov is the U.S. government's official web portal to all federal, state and local government web resources and services.